Location: Newark
(41.0400°S, 62.7845°W)
Time: 16:16:54
(UTC+00:00)

N. Korean satellite - Pass Details

Date: 23 October 2021
Orbit: 447 x 495 km, 97.3° (Epoch: 30 November)

Event Time Altitude Azimuth Distance (km) Brightness Sun altitude
Rises 07:58:09 0° 39° (NE) 2,512 10.3 -13.3°
Reaches altitude 10° 08:00:24 10° 51° (NE) 1,635 9.5 -13.0°
Maximum altitude 08:03:22 26° 109° (ESE) 964 9.0 -12.5°
Drops below altitude 10° 08:06:20 10° 167° (SSE) 1,635 9.8 -12.0°
Sets 08:08:35 0° 179° (S) 2,512 10.6 -11.6°
